Flag for Canada Weather past 2 weeks in Coquitlam, British Columbia, Canada

Now
50 °F

Cool.


Feels Like: 50 °F
Forecast: 40 / 49 °F
Wind: 1 mph from Northwest

Location: P. Meadows Coastal Station

Current Time: Jan 27, 2015 at 6:30:48 PM

Latest Report: Jan 27, 2015 at 5:00 PM


Visibility: N/A

Pressure: 30.11 "Hg

Humidity: 94%

Dew point: 49 °F

Location of CoquitlamLocation

Historic Weather in Coquitlam — Graph

°F

Coquitlam temperature yesterday

Maximum temperature yesterday: 61 °F (at 3:00 PM)
Minimum temperature yesterday: 38 °F (at 8:00 AM)
Average temperature yesterday: 46 °F

Past Weeks' High & Low Weather Summary

 TemperatureHumidityPressure
High61 °F (Jan 26, 3:00 PM)100% (Jan 12, 6:00 PM)30.50 "Hg (Jan 12, 6:00 PM)
Low29 °F (Jan 15, 5:00 AM)56% (Jan 26, 3:00 PM)29.47 "Hg (Jan 18, 1:00 AM)
Average43 °F93%30.17 "Hg
* Reported Jan 12 5:00 PM — Jan 27 5:00 PM, Coquitlam, Weather by CustomWeather, © 2014

Note: Actual official high and low records may vary slightly from our data, if they occured in-between our weather recording intervals... More about our weather records

Advertising

Coquitlam weather history for previous 24 hours

 ConditionsComfort  
Time TempWeatherWind HumidityBarometerVisibility
5:00 PM
Jan 27
50 °FCool.1 mph94%30.11 "HgN/A
4:00 PM49 °FCool.1 mph99%30.10 "HgN/A
3:00 PM51 °FCool.No wind95%30.08 "HgN/A
2:00 PM50 °FCool.2 mph95%30.07 "HgN/A
1:00 PM51 °FCool.1 mph92%30.06 "HgN/A
12:00 PM51 °FCool.No wind92%30.06 "HgN/A
11:00 AM50 °FCool.2 mph91%30.06 "HgN/A
10:00 AM49 °FCool.1 mph93%30.04 "HgN/A
9:00 AM47 °FCool.1 mph96%30.03 "HgN/A
8:00 AM45 °FCool.1 mph96%30.01 "HgN/A
7:00 AM44 °FQuite cool.1 mph99%29.99 "HgN/A
6:00 AM44 °FQuite cool.1 mph99%29.98 "HgN/A
5:00 AM43 °FQuite cool.2 mph99%29.98 "HgN/A
4:00 AM43 °FQuite cool.1 mph99%29.98 "HgN/A
3:00 AM43 °FQuite cool.2 mph99%29.99 "HgN/A
2:00 AM43 °FQuite cool.2 mph99%29.98 "HgN/A
1:00 AM42 °FQuite cool.1 mph98%29.97 "HgN/A
12:00 AM40 °FChilly.1 mph99%29.96 "HgN/A
11:00 PM
Jan 26
41 °FQuite cool.1 mph98%29.96 "HgN/A
10:00 PM41 °FQuite cool.1 mph96%29.95 "HgN/A
9:00 PM44 °FQuite cool.1 mph94%29.94 "HgN/A
8:00 PM46 °FCool.2 mph93%29.91 "HgN/A
7:00 PM46 °FCool.1 mph89%29.90 "HgN/A
6:00 PM49 °FCool.1 mph84%29.90 "HgN/A
Weather by CustomWeather, © 2014

See weather overviewHow to use our weather pages